Date String (YYYY-MM-DD hh:mm:ss) UTC,Instrument flags,absolute air pressure of the measurement (hPa),sample flow rate (lpm),inlet stack bypass flow (lpm),air temperature of the measurement (°C),ambient temperature measured by the external sensor (°C),aerosol sample conditioner tube jacket temperature (°C),OPC LED temperature (°C),internal box temperature (°C),relative humidity of the measurement (%),span deviation,mass concentration of particles derived from Lorenz-Mie calculation of OPC scattering (μg/m³),mass concentration of particles derived from Lorenz-Mie calculation of OPC scattering (μg/m³),mass concentration of particles derived from Lorenz-Mie calculation of OPC scattering (μg/m³)
DateTimeUTC,F1_M11,P_M11,Q1_M11,Q2_M11,T1_M11,T2_M11,T3_M11,T4_M11,T5_M11,U1_M11,ZSPAN_M11,X0_M11,X2_M11,X1_M11
2023-06-11 09:00:00,SystemResetWarning,0831.7,5.00,000.00,029.3,027.7,000.0,038.1,030.6,25.6,0000.0,0005.66,0003.29,0002.60
2023-06-11 09:01:00,SystemResetWarning,0831.7,5.00,000.00,029.3,027.6,000.0,038.1,030.5,25.5,0000.0,0005.78,0003.32,0002.62
2023-06-11 09:02:00,SystemResetWarning,0831.6,5.00,000.00,029.3,027.6,000.0,038.1,030.5,25.4,0000.0,0005.86,0003.34,0002.63
2023-06-11 09:03:00,SystemResetWarning,0831.6,5.00,000.00,029.2,027.6,000.0,038.1,030.4,25.5,0000.0,0005.92,0003.34,0002.64
2023-06-11 09:04:00,SystemResetWarning,0831.6,5.00,000.00,029.2,027.5,000.0,038.1,030.4,25.5,0000.0,0005.96,0003.35,0002.65
2023-06-11 09:05:00,SystemResetWarning,0831.6,4.99,000.00,029.2,027.5,000.0,038.0,030.4,25.6,0000.0,0005.86,0003.34,0002.66
2023-06-11 09:06:00,SystemResetWarning,0831.5,5.00,000.00,029.2,027.5,000.0,038.0,030.4,25.6,0000.0,0005.74,0003.34,0002.69
2023-06-11 09:07:00,SystemResetWarning,0831.6,4.99,000.00,029.1,027.4,000.0,038.0,030.3,25.5,0000.0,0005.61,0003.32,0002.71
2023-06-11 09:08:00,SystemResetWarning,0831.5,4.99,000.00,029.1,027.4,000.0,038.0,030.3,25.7,0000.0,0005.55,0003.33,0002.74
2023-06-11 09:09:00,SystemResetWarning,0831.5,5.00,000.00,029.1,027.4,000.0,037.9,030.3,25.7,0000.0,0005.37,0003.31,0002.75
2023-06-11 09:10:00,SystemResetWarning,0831.6,5.00,000.00,029.1,027.4,000.0,037.9,030.3,25.7,0000.0,0005.40,0003.33,0002.77
2023-06-11 09:11:00,SystemResetWarning,0831.5,5.00,000.00,029.1,027.4,000.0,037.9,030.3,25.7,0000.0,0005.23,0003.34,0002.81
2023-06-11 09:12:00,SystemResetWarning,0831.5,5.00,000.00,029.1,027.4,000.0,037.9,030.4,25.7,0000.0,0005.08,0003.34,0002.83
2023-06-11 09:13:00,SystemResetWarning,0831.6,5.00,000.00,029.1,027.5,000.0,037.9,030.4,25.8,0000.0,0005.05,0003.34,0002.86
2023-06-11 09:14:00,SystemResetWarning,0831.5,4.99,000.00,029.1,027.5,000.0,037.8,030.4,25.8,0000.0,0005.18,0003.37,0002.89
2023-06-11 09:15:00,SystemResetWarning,0831.5,5.00,000.00,029.1,027.5,000.0,037.8,030.4,25.8,0000.0,0005.40,0003.42,0002.91
2023-06-11 09:16:00,SystemResetWarning,0831.5,5.00,000.00,029.1,027.5,000.0,037.8,030.5,25.8,0000.0,0005.51,0003.42,0002.91
2023-06-11 09:17:00,SystemResetWarning,0831.6,5.00,000.00,029.1,027.6,000.0,037.8,030.5,25.9,0000.0,0005.54,0003.43,0002.92
2023-06-11 09:18:00,SystemResetWarning,0831.5,5.00,000.00,029.1,027.6,000.0,037.8,030.6,25.8,0000.0,0005.47,0003.43,0002.94
2023-06-11 09:19:00,SystemResetWarning,0831.5,5.00,000.00,029.1,027.6,000.0,037.8,030.6,25.7,0000.0,0005.54,0003.46,0002.96
2023-06-11 09:20:00,SystemResetWarning,0831.5,5.00,000.00,029.2,027.7,000.0,037.8,030.7,25.7,0000.0,0005.91,0003.52,0002.98
2023-06-11 09:21:00,SystemResetWarning,0831.5,5.01,000.00,029.2,027.7,000.0,037.8,030.7,25.7,0000.0,0006.34,0003.53,0002.98
2023-06-11 09:22:00,SystemResetWarning,0831.5,5.00,000.00,029.2,027.7,000.0,037.8,030.7,25.6,0000.0,0006.45,0003.54,0002.97
2023-06-11 09:23:00,SystemResetWarning,0831.6,5.00,000.00,029.2,027.8,000.0,037.8,030.8,25.6,0000.0,0006.59,0003.57,0002.97
2023-06-11 09:24:00,SystemResetWarning,0831.5,5.00,000.00,029.3,027.8,000.0,037.8,030.8,25.7,0000.0,0006.77,0003.57,0002.97
2023-06-11 09:25:00,SystemResetWarning,0831.6,4.99,000.00,029.3,027.8,000.0,037.8,030.8,25.9,0000.0,0006.59,0003.54,0002.97
2023-06-11 09:26:00,SystemResetWarning,0831.6,5.00,000.00,029.3,027.8,000.0,037.8,030.8,25.9,0000.0,0006.35,0003.52,0002.98
2023-06-11 09:27:00,SystemResetWarning,0831.6,5.00,000.00,029.3,027.8,000.0,037.8,030.8,25.9,0000.0,0007.19,0003.52,0002.99
2023-06-11 09:28:00,SystemResetWarning,0831.6,5.00,000.00,029.3,027.8,000.0,037.8,030.8,25.8,0000.0,0007.42,0003.52,0002.99
2023-06-11 09:29:00,SystemResetWarning,0831.6,5.00,000.00,029.3,027.8,000.0,037.8,030.8,25.8,0000.0,0007.73,0003.51,0003.00
2023-06-11 09:30:00,SystemResetWarning,0831.5,5.00,000.00,029.3,027.8,000.0,037.9,030.8,25.8,0000.0,0007.84,0003.49,0002.99
2023-06-11 09:31:00,SystemResetWarning,0831.6,5.00,000.00,029.4,027.8,000.0,037.9,030.8,25.9,0000.0,0007.71,0003.47,0003.01
2023-06-11 09:32:00,SystemResetWarning,0831.6,5.00,000.00,029.4,027.8,000.0,037.9,030.8,26.0,0000.0,0007.41,0003.44,0003.04
2023-06-11 09:33:00,SystemResetWarning,0831.6,5.00,000.00,029.4,027.8,000.0,037.9,030.9,26.0,0000.0,0007.42,0003.47,0003.08
2023-06-11 09:34:00,SystemResetWarning,0831.6,4.99,000.00,029.4,027.8,000.0,037.9,030.9,26.2,0000.0,0007.46,0003.47,0003.10
2023-06-11 09:35:00,SystemResetWarning,0831.6,4.99,000.00,029.4,027.9,000.0,037.9,030.8,26.3,0000.0,0007.28,0003.45,0003.10
2023-06-11 09:36:00,SystemResetWarning,0831.6,5.00,000.00,029.4,027.9,000.0,037.9,030.8,26.4,0000.0,0007.23,0003.45,0003.11
2023-06-11 09:37:00,SystemResetWarning,0831.6,5.00,000.00,029.4,027.9,000.0,037.9,030.9,26.5,0000.0,0007.37,0003.46,0003.12
2023-06-11 09:38:00,SystemResetWarning,0831.6,5.01,000.00,029.4,027.9,000.0,037.9,030.9,26.6,0000.0,0006.82,0003.51,0003.15
2023-06-11 09:39:00,SystemResetWarning,0831.6,5.01,000.00,029.4,027.9,000.0,037.9,030.9,26.6,0000.0,0006.88,0003.57,0003.17
2023-06-11 09:40:00,SystemResetWarning,0831.5,4.99,000.00,029.4,027.9,000.0,037.9,030.9,26.5,0000.0,0007.51,0003.63,0003.19
2023-06-11 09:41:00,SystemResetWarning,0831.5,5.00,000.00,029.5,027.9,000.0,038.0,030.9,26.4,0000.0,0007.44,0003.63,0003.21
2023-06-11 09:42:00,SystemResetWarning,0831.6,5.00,000.00,029.5,027.9,000.0,038.0,030.9,26.3,0000.0,0007.61,0003.69,0003.23
2023-06-11 09:43:00,SystemResetWarning,0831.5,5.00,000.00,029.5,027.9,000.0,038.0,030.9,26.2,0000.0,0007.84,0003.73,0003.24
2023-06-11 09:44:00,SystemResetWarning,0831.5,5.00,000.00,029.5,027.9,000.0,038.0,030.9,26.1,0000.0,0007.83,0003.73,0003.25
2023-06-11 09:45:00,SystemResetWarning,0831.6,5.00,000.00,029.5,028.0,000.0,038.0,031.0,26.1,0000.0,0007.90,0003.73,0003.25
2023-06-11 09:46:00,SystemResetWarning,0831.6,5.00,000.00,029.5,028.0,000.0,038.0,031.0,26.1,0000.0,0008.14,0003.78,0003.27
2023-06-11 09:47:00,SystemResetWarning,0831.6,5.01,000.00,029.5,028.0,000.0,038.0,031.0,26.1,0000.0,0008.76,0003.83,0003.28
2023-06-11 09:48:00,SystemResetWarning,0831.6,5.00,000.00,029.5,028.0,000.0,038.0,031.0,26.1,0000.0,0008.71,0003.83,0003.30
2023-06-11 09:49:00,SystemResetWarning,0831.6,5.00,000.00,029.5,028.0,000.0,038.0,031.0,26.1,0000.0,0008.41,0003.80,0003.31
2023-06-11 09:50:00,SystemResetWarning,0831.7,5.00,000.00,029.5,028.0,000.0,038.0,031.0,26.1,0000.0,0008.37,0003.77,0003.30
2023-06-11 09:51:00,SystemResetWarning,0831.6,5.00,000.00,029.5,028.0,000.0,038.0,031.0,26.1,0000.0,0007.84,0003.76,0003.30
2023-06-11 09:52:00,SystemResetWarning,0831.7,5.00,000.00,029.5,028.0,000.0,038.0,031.0,26.1,0000.0,0007.60,0003.77,0003.30
2023-06-11 09:53:00,SystemResetWarning,0831.7,5.00,000.00,029.6,028.0,000.0,038.0,031.0,26.0,0000.0,0008.34,0003.76,0003.29
2023-06-11 09:54:00,SystemResetWarning,0831.7,5.00,000.00,029.6,028.0,000.0,038.1,031.0,26.0,0000.0,0008.72,0003.74,0003.29
2023-06-11 09:55:00,SystemResetWarning,0831.7,5.01,000.00,029.6,028.0,000.0,038.1,031.0,26.1,0000.0,0008.83,0003.77,0003.29
2023-06-11 09:56:00,SystemResetWarning,0831.7,5.01,000.00,029.6,028.0,000.0,038.1,031.0,26.1,0000.0,0008.74,0003.75,0003.29
2023-06-11 09:57:00,SystemResetWarning,0831.7,5.01,000.00,029.6,028.0,000.0,038.1,031.0,26.2,0000.0,0008.62,0003.71,0003.29
2023-06-11 09:58:00,SystemResetWarning,0831.8,4.99,000.00,029.6,028.0,000.0,038.1,031.0,26.2,0000.0,0007.98,0003.71,0003.29
2023-06-11 09:59:00,SystemResetWarning,0831.7,4.99,000.00,029.6,028.0,000.0,038.1,031.0,26.0,0000.0,0008.01,0003.71,0003.28
